SCP
0 0 0 0 0 0 0 0 0 0 0 0 0 1 1 1 1 1 1 0 0 0 0 1 1 1 1 1 1 1 0 0 0 0 0 0 1 1 1 1 1 1 1 1
0 0 0 0 0 0 0 0 0 0 0 0 0 0 1 1 1 1 1 1 0 0 0 1 1 1 1 1 1 1 0 0 0 0 1 1 1 1 1 1 1 1 1 1
0 0 0 0 0 0 0 0 0 0 0 0 0 0 0 1 1 1 1 1 0 0 0 1 1 1 1 1 1 1 1 1 1 1 1 2 2 2 1 1 1 1 1 2
0 0 0 0 0 0 0 0 0 0 0 0 0 0 0 0 1 1 1 1 1 0 1 1 1 1 1 1 1 1 1 1 1 1 2 3 3 3 2 2 2 1 1 1
0 0 0 0 0 0 0 0 0 0 0 0 0 0 0 0 0 1 1 1 1 1 1 1 1 1 1 1 1 1 1 1 1 1 2 3 4 4 3 2 2 1 1 1
0 0 0 0 0 0 0 0 0 0 0 0 0 0 0 0 0 0 0 1 1 1 1 1 1 1 1 1 1 1 1 1 2 1 2 3 4 4 4 3 2 1 1 1
0 0 0 0 0 0 0 0 0 0 0 0 0 0 0 0 0 0 0 0 1 1 0 1 1 1 2 2 2 2 2 2 2 2 2 3 4 4 3 2 2 1 1 1
0 0 0 0 0 0 0 0 0 0 0 0 0 0 0 0 0 0 0 1 1 1 1 1 1 2 3 4 4 3 3 3 3 2 3 3 3 3 3 2 1 1 2 2
0 0 0 0 1 1 0 0 0 0 0 0 0 0 0 0 0 0 1 1 1 1 1 1 2 3 4 5 5 5 4 3 3 3 3 3 3 2 2 1 1 1 2 2
0 0 0 1 1 1 0 0 0 0 0 0 0 0 0 0 0 0 1 2 2 1 1 2 3 5 5 6 6 6 5 4 3 2 2 2 2 2 1 1 1 2 2 3
0 0 0 1 1 1 1 0 0 0 0 0 0 0 0 0 0 1 1 2 2 2 2 3 5 7 7 6 6 6 5 4 3 2 2 1 1 1 1 1 2 2 3 4
0 0 0 0 0 0 0 0 0 0 0 0 0 0 0 0 0 1 2 2 2 2 3 4 7 9 9 8 7 7 5 3 2 1 1 1 1 1 1 1 2 3 4 4
0 0 0 0 0 0 0 0 0 0 0 0 0 0 0 0 0 1 2 2 2 2 3 6 8 10 10 9 9 8 6 4 2 1 1 2 2 2 1 1 2 3 3 4
0 0 0 0 0 0 0 0 0 0 0 0 0 0 0 0 0 1 1 1 1 2 4 7 9 10 11 10 10 9 7 4 2 2 2 2 2 2 1 1 2 2 2 3
0 0 0 0 0 0 0 0 0 0 0 0 0 0 0 0 1 1 1 1 2 3 5 7 9 11 11 10 10 9 8 4 2 2 2 2 3 2 2 1 1 1 2 2
0 0 0 0 0 0 0 0 0 0 0 0 0 0 0 1 1 1 1 2 3 5 6 7 9 11 11 10 9 9 8 5 3 3 3 3 4 4 3 2 2 1 1 1
0 0 0 0 0 0 0 0 0 0 0 0 0 0 1 1 1 2 2 3 5 7 8 8 9 11 11 9 8 8 7 5 4 4 4 5 6 5 4 3 3 2 2 1
0 0 0 0 0 0 0 0 0 0 0 0 1 1 1 1 2 2 3 3 5 6 7 8 9 11 11 9 7 6 6 5 4 4 5 6 7 6 4 4 3 3 2 2
0 0 0 0 0 0 0 1 1 1 1 1 1 1 1 2 3 3 2 2 4 5 5 5 8 10 10 8 6 5 4 4 3 3 4 6 6 5 4 3 3 3 2 2
0 0 0 0 0 0 0 1 1 1 1 1 2 2 2 4 4 3 2 3 4 4 4 4 6 9 9 7 6 5 4 4 3 3 4 4 5 4 3 2 2 2 2 2
0 0 0 0 0 0 0 1 1 1 1 2 2 2 3 4 4 3 3 4 5 5 4 3 5 8 8 6 5 5 4 4 3 3 3 3 3 3 3 3 3 3 2 2
0 0 0 0 0 0 1 1 1 1 2 3 3 3 3 3 3 3 3 4 5 4 3 3 5 6 6 4 4 4 4 3 3 3 3 3 3 3 3 3 3 4 3 2
0 0 0 0 1 0 1 1 1 2 3 4 4 3 3 2 2 3 3 4 4 3 3 3 3 4 4 3 3 3 3 3 3 3 3 3 3 3 4 4 4 4 4 3
1 1 1 1 1 1 1 1 2 3 3 3 3 3 2 2 2 3 3 3 3 2 2 2 3 3 3 2 2 2 2 2 3 3 3 3 3 4 5 5 5 5 5 4
1 1 2 2 2 2 2 2 3 3 3 3 3 3 3 2 2 2 3 3 2 2 2 2 2 3 2 2 2 2 2 2 2 2 3 3 3 4 5 6 6 6 5 5
1 1 2 2 2 2 2 2 3 4 4 3 3 4 3 2 2 2 2 2 2 2 2 2 2 3 3 2 2 2 2 1 2 2 3 3 4 5 6 7 6 6 5 4
Wind_Speed
2 4 3 6 6 5 4 3 2 3 2 3 2 2 2 4 4 5 6 6 6 6 5 4 4 4 3 3 3 3 3 2 2 2 1 1 1 0 1 0 1 1 1 2
4 2 6 5 4 3 3 2 1 2 1 3 1 2 2 4 6 7 7 8 8 6 4 4 4 4 4 4 3 3 3 2 2 2 1 1 2 1 1 1 1 1 1 2
5 5 3 5 4 3 3 5 4 3 1 2 2 3 2 2 3 3 5 6 6 8 7 6 5 5 4 4 4 4 3 3 2 2 2 3 2 2 2 2 1 1 1 2
4 4 2 3 3 4 4 5 5 4 3 1 2 2 5 3 3 5 6 6 7 8 7 6 6 5 5 5 4 4 3 3 2 3 3 3 2 2 1 0 1 1 1 2
4 3 3 3 5 5 4 2 4 3 4 1 1 1 7 1 4 7 8 9 8 8 8 8 8 7 6 5 4 3 3 2 2 3 3 3 2 2 1 1 2 1 1 1
4 2 4 5 2 4 4 6 6 5 5 1 2 3 6 4 7 6 7 8 8 8 7 7 6 5 5 4 4 3 3 3 2 3 3 4 4 3 3 2 1 0 0 1
3 4 2 3 2 2 5 6 4 4 3 4 2 2 8 6 6 7 8 8 8 8 7 7 7 7 6 6 5 4 4 3 3 3 3 4 4 4 4 3 3 2 1 1
2 5 3 3 5 6 4 8 7 5 4 4 1 4 7 5 3 4 4 5 6 7 7 8 8 8 8 7 6 6 5 4 4 4 3 3 3 3 2 3 3 3 2 2
6 5 4 2 3 8 6 3 6 7 2 0 4 5 7 1 0 1 2 4 5 6 7 8 8 8 8 8 7 7 6 5 4 4 3 3 3 3 3 2 2 2 2 2
8 3 3 1 4 4 5 8 6 6 5 2 4 4 5 4 3 3 3 4 4 4 5 6 7 8 8 7 6 6 6 6 5 4 4 3 3 3 3 2 2 2 2 2
5 4 2 2 2 4 4 4 5 4 5 6 3 7 6 7 6 6 6 5 5 5 6 6 6 7 6 6 6 6 5 4 4 4 3 3 3 3 3 2 3 3 2 2
4 6 2 4 3 2 4 6 8 6 4 4 4 8 4 5 6 6 6 5 4 4 5 6 6 6 6 6 6 5 5 5 5 5 4 4 3 3 3 3 3 2 2 2
6 7 3 5 5 3 2 2 4 6 6 5 4 8 3 0 2 3 4 4 4 4 4 4 5 6 7 7 6 6 6 5 4 4 4 4 4 4 4 3 3 3 3 2
6 5 7 9 7 4 2 2 4 6 5 5 8 7 5 3 3 3 3 4 4 5 5 5 5 5 6 6 6 6 6 5 5 4 4 4 4 4 4 3 3 3 3 3
5 4 3 3 3 3 3 4 5 5 8 8 8 8 9 7 7 5 4 4 4 5 5 5 5 4 5 5 5 5 5 5 5 5 4 4 3 2 2 2 3 3 3 3
4 4 2 1 1 2 2 2 4 4 4 4 3 6 5 3 3 3 4 5 5 5 5 5 5 5 5 5 5 5 5 5 5 5 4 3 3 3 2 2 2 2 2 2
3 5 4 2 3 2 3 3 4 4 4 6 7 7 2 2 5 5 5 5 5 5 5 6 6 6 6 5 5 5 4 4 5 4 4 3 3 3 3 2 2 2 3 3
6 5 4 2 2 4 8 3 3 4 2 3 4 3 4 5 3 2 2 3 3 4 4 5 5 4 4 3 3 3 4 4 4 3 3 3 3 3 2 2 3 3 2 3
5 8 5 4 3 4 5 2 3 4 2 2 3 3 3 4 5 2 0 2 3 3 3 3 4 4 4 4 4 4 4 4 3 3 3 3 4 3 3 3 3 3 2 2
5 5 6 5 4 6 8 3 1 3 3 3 4 6 5 6 3 3 2 2 1 2 3 3 4 4 4 3 4 5 4 4 4 4 3 3 4 4 4 4 3 2 2 3
3 4 4 4 4 8 6 3 2 4 7 2 5 6 6 5 5 4 3 2 2 3 3 3 4 4 3 3 5 5 4 5 5 3 2 2 3 4 4 3 2 2 2 2
5 5 4 5 4 8 2 1 5 6 2 2 4 4 5 4 3 3 4 4 3 3 3 3 3 3 2 3 5 5 5 4 3 3 2 2 2 3 2 2 2 2 2 3
4 6 6 8 7 5 2 4 3 2 2 2 4 4 6 4 3 3 3 3 3 3 2 2 3 2 2 2 4 5 5 3 4 3 3 3 3 3 3 3 3 2 3 3
2 2 3 2 4 4 3 2 1 0 2 2 3 5 6 5 4 3 3 2 2 2 2 2 3 2 1 1 2 4 3 3 3 4 3 3 3 3 2 2 3 3 3 4
4 2 2 2 4 3 3 2 1 1 2 3 3 3 4 5 4 3 2 2 3 2 2 2 2 2 2 1 2 2 2 2 2 2 3 2 2 3 2 3 3 4 5 5
5 6 6 7 6 4 5 3 1 1 1 2 4 3 2 3 4 3 3 2 2 2 1 1 1 1 2 1 2 2 2 3 3 2 2 2 2 2 3 3 3 4 5 6
Wind_Direction
78 87 185 206 190 180 167 163 212 240 201 135 208 236 215 174 173 184 178 180 190 207 207 185 175 168 158 158 155 161 149 142 121 107 107 105 97 72 59 78 100 103 110 115
52 254 225 185 171 160 162 158 235 295 144 145 181 277 245 195 200 195 186 189 196 200 192 184 174 166 170 171 169 166 165 158 152 148 140 132 125 113 92 46 59 79 110 125
181 230 180 152 156 160 195 183 192 190 47 54 85 329 291 246 201 196 193 190 193 198 198 194 186 184 177 182 185 189 185 172 162 141 108 92 74 57 48 39 38 46 110 121
217 236 159 156 201 167 238 209 176 159 130 261 123 279 283 237 220 215 210 199 199 201 195 190 191 190 191 196 189 187 183 173 160 141 133 136 134 136 159 141 91 53 65 98
233 195 160 200 219 172 208 134 132 137 137 74 36 165 283 241 234 231 220 209 206 199 191 190 193 195 195 189 181 182 173 168 160 150 150 144 139 141 124 106 89 61 45 72
238 232 193 208 203 152 129 73 60 53 74 49 236 172 274 236 225 225 215 210 209 199 190 191 188 181 182 176 171 168 165 175 164 154 155 158 159 150 141 142 139 130 54 62
315 306 251 176 103 58 101 96 42 6 16 256 257 193 251 249 228 209 207 207 204 193 183 183 177 179 183 180 178 172 170 182 175 163 170 175 174 168 173 180 180 178 185 201
183 279 248 191 173 170 162 140 156 186 209 276 318 240 259 267 244 207 196 192 187 182 183 186 185 184 187 186 182 176 180 187 180 178 184 181 178 178 191 196 193 195 204 215
175 242 275 232 181 141 136 156 156 128 133 356 286 287 304 319 13 159 168 170 184 186 187 189 185 184 186 186 186 185 183 185 185 186 180 176 181 189 201 207 199 204 208 203
157 203 278 295 72 41 133 142 106 118 140 220 287 278 254 256 234 220 196 190 192 184 188 188 186 187 187 185 181 177 179 186 187 182 185 189 192 195 194 187 201 207 209 198
141 154 299 23 154 173 115 108 108 112 143 153 227 265 226 214 210 207 212 203 190 186 189 188 187 180 169 165 167 171 176 178 181 184 187 186 189 189 185 190 205 208 205 194
139 125 205 262 260 190 166 164 150 150 185 163 173 264 275 213 207 194 207 212 196 187 185 182 175 164 158 161 165 169 174 182 190 186 179 186 190 182 189 205 213 203 204 206
136 117 86 344 341 16 100 139 144 127 120 150 172 259 306 100 188 200 200 208 190 169 160 161 160 165 167 169 172 175 177 183 181 174 176 180 186 190 203 212 209 201 203 208
115 114 159 191 213 203 192 184 157 131 148 189 215 237 271 241 215 214 206 202 181 164 160 160 167 171 169 172 178 179 180 175 171 169 176 185 197 200 207 208 203 201 196 197
103 130 180 211 222 194 202 208 185 182 183 186 220 218 236 221 205 203 194 180 164 160 162 168 170 167 167 173 178 179 182 180 175 169 180 193 192 189 196 203 206 199 196 205
76 128 130 311 302 198 228 240 199 205 188 209 218 246 245 207 175 178 180 171 171 174 173 171 164 162 173 178 179 175 180 179 168 172 188 191 179 179 190 205 208 205 213 215
102 119 114 238 300 48 273 235 200 204 200 179 206 232 187 174 188 193 188 176 172 178 176 172 172 176 182 183 179 181 178 161 161 178 184 186 186 188 200 207 200 219 223 218
131 110 118 133 88 212 246 256 186 171 217 220 223 214 185 181 166 146 166 173 168 168 172 175 174 172 167 165 170 166 148 151 167 184 191 189 187 195 203 203 218 231 227 223
143 133 122 126 164 268 289 259 170 162 253 226 196 175 139 121 84 21 242 178 177 173 170 171 166 157 149 154 159 145 147 155 165 190 199 199 191 194 202 217 231 234 229 238
66 99 118 132 155 219 238 254 206 117 277 245 180 173 152 122 124 245 222 161 130 122 127 130 129 127 138 159 150 145 160 169 190 204 209 202 192 195 209 221 225 224 220 236
72 68 121 152 196 250 249 272 108 164 237 217 174 174 163 168 186 189 156 140 125 114 117 122 125 135 161 160 150 163 176 199 205 194 187 199 210 215 218 219 218 224 229 232
162 148 167 147 182 247 276 129 180 217 227 166 167 164 155 158 141 131 137 140 134 116 104 118 128 134 146 157 159 173 199 212 190 170 165 209 233 235 229 215 228 221 218 227
187 186 181 185 209 247 256 233 254 189 180 184 164 155 145 147 155 143 146 147 145 133 128 128 139 136 155 179 174 186 211 199 180 176 183 205 230 229 222 215 227 227 220 226
259 143 141 240 272 282 292 312 347 160 177 164 148 145 144 147 153 144 139 136 140 144 154 153 145 145 184 213 201 205 208 195 181 191 203 205 216 233 227 218 214 219 228 233
217 158 142 255 278 319 326 323 341 45 85 108 110 120 140 136 141 146 150 156 155 155 158 149 153 174 210 216 226 231 202 173 192 218 221 221 223 227 240 240 229 226 231 223
203 182 179 218 220 197 242 259 222 135 141 143 129 109 104 138 149 143 150 163 160 162 142 131 154 185 223 233 250 247 204 178 186 223 233 230 234 234 236 246 274 262 251 253